Regional Weather Roundup
Issued by NWS Raleigh/Durham, NC

Home | Current Version | Previous Version | Text Only | Print | Product List | Glossary On
Versions: 1 2 3 4 5 6 7 8 9 10 11 12 13 14 15 16 17 18 19 20 21 22 23 24 25 26 27
000
ASUS42 KRAH 110610
RWRRAH
NORTH CAROLINA WEATHER ROUNDUP
NATIONAL WEATHER SERVICE RALEIGH NC
100 AM EST MON DEC 11 2017

NOTE: "FAIR" INDICATES FEW OR NO CLOUDS BELOW 12,000 FEET WITH NO
SIGNIFICANT WEATHER AND/OR OBSTRUCTIONS TO VISIBILITY.

NCZ001-053-055-056-065-067-110700-
WESTERN NORTH CAROLINA

CITY           SKY/WX    TMP DP  RH WIND       PRES   REMARKS
ASHEVILLE      CLEAR     26  17  68 N8        30.13S WCI  18
JEFFERSON      CLOUDY    30  16  55 W15G30    30.01F WCI  19
MORGANTON      CLEAR     25  24  95 CALM      30.14S
HICKORY        CLEAR     30  23  75 CALM      30.10S
RUTHERFORDTON  CLEAR     27  26  96 CALM      30.13S
MOUNT AIRY     CLEAR     27  23  84 CALM      30.11S
BOONE          CLEAR     30  15  54 W22G36    30.00F WCI  17
$$

NCZ021-022-025-041-071-084-088-110700-
CENTRAL NORTH CAROLINA

CITY           SKY/WX    TMP DP  RH WIND       PRES   REMARKS
CHARLOTTE      CLEAR     32  24  72 SW6       30.15S WCI  26
GREENSBORO     CLEAR     30  23  75 SW3       30.10F
WINSTON-SALEM  CLEAR     27  23  85 SE3       30.12F
RALEIGH-DURHAM CLEAR     28  24  85 W5        30.14F WCI  23
FORT BRAGG     CLEAR     31  26  80 CALM      30.15S
FAYETTEVILLE   CLEAR     33  27  78 S6        30.16S WCI  28
BURLINGTON     CLEAR     28  26  92 SW3       30.12F
LAURINBURG     CLEAR     33  28  81 SW3       30.18S
$$

NCZ011-015-027-028-043-044-047-080-103-110700-
NORTHEASTERN NORTH CAROLINA

CITY           SKY/WX    TMP DP  RH WIND       PRES   REMARKS
ROCKY MT-WILSO CLEAR     31  27  85 S3        30.16R
GREENVILLE     CLEAR     34  28  80 W5        30.18R WCI  30
WASHINGTON     CLEAR     33  27  76 SW5       30.16F WCI  29
ELIZABETH CITY CLEAR     33  31  92 SW6       30.14F WCI  28
MANTEO         CLEAR     38  31  76 SW10      30.16F WCI  32
CAPE HATTERAS  CLEAR     42  29  59 W9        30.18F
$$

NCZ078-087-090-091-093-098-101-110700-
SOUTHEASTERN NORTH CAROLINA

CITY           SKY/WX    TMP DP  RH WIND       PRES   REMARKS
LUMBERTON      CLEAR     34  28  79 SW6       30.18S WCI  29
GOLDSBORO      CLEAR     34  26  72 SW7       30.15R WCI  28
KINSTON        CLEAR     32  27  81 SW5       30.18R WCI  27
KENANSVILLE    CLEAR     28  27  93 CALM      30.18S
NEW BERN       CLEAR     31  28  89 SW3       30.18F
CHERRY POINT   CLEAR     32  29  88 SW6       30.18F WCI  26
BEAUFORT       CLEAR     43  30  60 W8        30.17F
JACKSONVILLE   CLEAR     34  28  79 SW5       30.18F WCI  30
WILMINGTON     CLEAR     37  29  72 SW8       30.20F WCI  31
$$





USA.gov is the U.S. government's official web portal to all federal, state and local government web resources and services.